Weather History for KAUW - November, 2012

Change the Weather History Date:

Saturday, November 3, 2012

  Actual Average Record
Temperature  
Mean Temperature 34 °F 39 °F  
Max Temperature 42 °F 47 °F 72 °F (2008)
Min Temperature 26 °F 31 °F -1 °F (1951)
Degree Days  
Heating Degree Days 31 26  
Month to date heating degree days 87 77  
Since 1 July heating degree days 946 961  
Cooling Degree Days 0 0  
Month to date cooling degree days 0 0  
Year to date cooling degree days 725 407  
Moisture  
Dew Point 23 °F    
Average Humidity 64    
Maximum Humidity 81    
Minimum Humidity 46    
Precipitation  
Precipitation 0.00 in 0.08 in 1.02 in (1987)
Month to date precipitation T 0.22  
Year to date precipitation 26.58 29.27  
Snow  
Snow 0.00 in 0.10 in 1.80 in (1951)
Month to date snowfall 0.0 0.3  
Since 1 July snowfall T 1.7  
Snow Depth 0.00 in    
Sea Level Pressure  
Sea Level Pressure 30.26 in    
Wind  
Wind Speed 3 mph (NE)    
Max Wind Speed 7 mph    
Max Gust Speed 10 mph    
Visibility 10 miles    
Events      
T = Trace of Precipitation, MM = Missing Value Source: NWS Daily Summary

Daily Weather History Graph

Daily Weather History Graph

Search for Another Location

Airport or City:

Trip Planner

Search our weather history database for the weather conditions in past years. The results will help you decide how hot, cold, wet, or windy it might be!

Date:

Astronomy

Nov. 03, 2012 Rise Set
Actual Time 7:40 AM CDT 5:43 PM CDT
Civil Twilight 7:09 AM CDT 6:14 PM CDT
Nautical Twilight 6:34 AM CDT 6:48 PM CDT
Astronomical Twilight 6:00 AM CDT 7:22 PM CDT
Moon 9:20 PM CDT (11/3) 11:49 AM CDT (11/3)
Length of Visible Light 11h 04m
Length of Day
10h 03m
Waning Gibbous, 80% of the Moon is Illuminated
Nov 3
Waning Gibbous
Nov 6
Last Quarter
Nov 13
New
Nov 20
First Quarter
Nov 28
Full

Hourly Weather History & Observations

Time (CDT) Temp. Windchill Dew Point Humidity Pressure Visibility Wind Dir Wind Speed Gust Speed Precip Events Conditions
12:54 AM 27.0 °F - 19.9 °F 75% 30.24 in 10.0 mi Calm Calm - N/A   Clear
3:54 AM 28.0 °F 21.7 °F 21.0 °F 75% 30.24 in 10.0 mi NE 5.8 mph - N/A   Clear
4:54 AM 28.0 °F 22.8 °F 21.0 °F 75% 30.25 in 10.0 mi ENE 4.6 mph - N/A   Clear
5:54 AM 28.0 °F 24.2 °F 21.9 °F 78% 30.26 in 10.0 mi NE 3.5 mph - N/A   Mostly Cloudy
6:54 AM 28.0 °F 21.7 °F 21.9 °F 78% 30.26 in 10.0 mi NE 5.8 mph - N/A   Overcast
7:54 AM 28.0 °F 22.8 °F 21.9 °F 78% 30.26 in 10.0 mi East 4.6 mph - N/A   Mostly Cloudy
8:54 AM 28.9 °F 23.9 °F 21.9 °F 75% 30.28 in 10.0 mi ENE 4.6 mph - N/A   Partly Cloudy
9:54 AM 32.0 °F 26.4 °F 23.0 °F 69% 30.29 in 10.0 mi East 5.8 mph - N/A   Partly Cloudy
10:54 AM 33.1 °F 30.0 °F 24.1 °F 70% 30.30 in 10.0 mi Variable 3.5 mph - N/A   Partly Cloudy
11:54 AM 34.0 °F 31.0 °F 24.1 °F 67% 30.29 in 10.0 mi South 3.5 mph - N/A   Clear
12:54 PM 37.0 °F 34.5 °F 24.1 °F 59% 30.28 in 10.0 mi South 3.5 mph - N/A   Partly Cloudy
1:54 PM 37.9 °F - 24.1 °F 57% 30.26 in 10.0 mi Calm Calm - N/A   Clear
2:54 PM 39.0 °F 35.7 °F 24.1 °F 55% 30.24 in 10.0 mi NE 4.6 mph - N/A   Mostly Cloudy
3:54 PM 41.0 °F 38.0 °F 23.0 °F 49% 30.24 in 10.0 mi North 4.6 mph - N/A   Clear
4:54 PM 39.0 °F 36.8 °F 23.0 °F 53% 30.24 in 10.0 mi West 3.5 mph - N/A   Clear
5:54 PM 37.9 °F - 21.9 °F 53% 30.24 in 10.0 mi Calm Calm - N/A   Partly Cloudy
6:54 PM 36.0 °F - 23.0 °F 59% 30.25 in 10.0 mi Calm Calm - N/A   Mostly Cloudy
7:54 PM 32.0 °F 28.7 °F 23.0 °F 69% 30.27 in 10.0 mi North 3.5 mph - N/A   Clear
8:54 PM 30.0 °F - 23.0 °F 75% 30.27 in 10.0 mi Calm Calm - N/A   Scattered Clouds
9:54 PM 28.9 °F - 23.0 °F 78% 30.27 in 10.0 mi Calm Calm - N/A   Clear
10:54 PM 28.0 °F - 21.9 °F 78% 30.27 in 10.0 mi Calm Calm - N/A   Partly Cloudy
11:54 PM 26.1 °F - 21.9 °F 84% 30.27 in 10.0 mi Calm Calm - N/A   Clear